Helicity
3 31 54 81 104 123 221 184 182 180 225 234 231 213 218 240 248 263 231 200 154 156 149 163 145 206 270 336 425 346 327 236 156 133 169 144 170 173 227 254 241 213 188
14 26 60 97 101 158 192 175 181 199 272 238 178 169 172 204 226 236 248 204 148 137 165 135 143 165 245 246 263 223 174 190 208 148 196 174 168 180 220 265 226 210 236
-19 18 48 70 81 162 148 137 159 258 329 243 154 121 168 181 200 203 196 176 143 151 140 161 160 208 212 170 176 165 134 138 144 255 213 158 229 310 272 227 266 203 224
-32 32 50 37 76 125 134 141 131 302 273 219 111 136 158 173 165 177 179 184 170 139 123 128 200 203 226 219 202 181 147 112 175 168 192 188 186 251 240 241 219 204 134
-8 47 70 26 61 130 124 133 138 236 277 205 144 165 164 152 143 145 157 159 179 159 120 120 127 221 199 238 272 271 249 291 283 269 281 271 282 234 181 155 180 196 231
11 44 93 44 31 109 114 102 155 266 319 260 188 181 156 128 97 99 110 107 127 97 93 108 134 178 252 260 280 331 345 278 381 393 373 212 244 201 186 155 201 216 225
12 55 59 177 84 103 111 128 155 269 268 233 187 166 136 106 82 76 95 96 107 94 95 113 86 104 115 252 360 430 386 400 275 323 271 186 150 151 175 196 256 231 279
33 86 62 177 172 136 149 157 205 261 248 187 183 168 164 167 87 72 72 83 90 68 62 86 95 82 112 214 311 395 378 319 265 255 231 212 225 221 224 211 256 372 387
82 130 93 150 197 96 133 187 256 287 303 298 265 256 210 188 116 64 71 66 93 97 108 107 57 69 103 187 228 254 266 269 275 332 388 327 298 297 245 221 276 356 343
77 154 144 97 234 330 200 210 272 403 436 424 441 423 328 255 191 63 66 126 166 165 171 151 161 65 148 189 185 219 241 217 214 264 302 312 275 284 327 289 243 303 309
74 150 202 161 180 375 524 419 395 444 499 488 533 485 440 388 300 145 125 158 187 216 197 184 171 167 207 249 252 251 257 311 318 301 293 298 308 312 294 280 295 246 257
109 171 279 279 172 303 645 597 568 505 501 499 480 480 491 462 403 339 314 305 278 295 257 250 230 237 291 313 333 331 411 465 391 362 358 330 317 332 331 327 349 365 369
24 105 193 310 340 305 460 740 687 628 595 508 470 433 438 410 405 398 389 423 396 398 345 315 312 337 399 425 381 415 410 407 419 424 407 385 351 324 308 348 348 353 388
18 53 131 238 330 455 430 482 523 602 659 555 486 399 406 358 293 325 389 443 457 410 365 362 365 403 449 389 430 467 390 433 454 417 378 350 318 261 259 268 287 289 314
12 11 33 106 224 274 446 395 348 380 340 331 391 405 384 374 297 265 277 331 360 357 345 372 431 460 451 450 448 376 381 387 364 317 318 275 227 258 253 211 213 227 213
24 15 18 36 61 139 184 245 436 412 384 340 276 223 267 282 283 198 141 184 317 479 361 379 396 382 391 388 334 334 355 313 272 238 227 205 206 209 205 196 180 179 202
48 53 15 32 56 95 125 136 173 291 377 378 312 262 219 244 289 277 325 354 318 296 341 326 315 292 271 275 279 260 253 233 200 192 184 173 182 200 208 199 187 174 177
51 75 73 71 59 77 111 144 154 167 187 226 269 218 208 198 191 200 196 240 271 307 263 223 219 215 218 226 217 214 212 216 212 205 216 213 219 215 228 226 219 211 192
66 55 63 70 84 81 91 127 173 191 166 144 147 192 189 202 211 215 219 200 172 184 182 197 191 191 195 191 190 198 201 207 218 241 223 210 198 201 228 218 217 227 238
93 97 88 72 75 91 108 125 135 138 138 127 130 125 128 189 228 227 216 197 193 184 174 179 171 165 171 181 188 197 213 222 232 238 223 205 195 184 200 221 213 211 206
90 105 107 101 97 90 89 100 97 102 110 116 119 121 142 153 162 189 202 215 204 206 212 223 230 217 205 196 199 207 214 209 201 205 207 212 201 194 200 202 200 178 167
109 105 107 103 97 103 97 101 109 111 107 113 120 146 169 165 164 171 188 205 210 213 200 203 218 222 224 214 198 212 222 233 237 224 197 188 200 187 158 169 177 165 157
113 117 134 140 133 132 128 116 111 109 110 111 116 131 150 162 166 172 173 172 182 197 200 206 206 220 225 231 223 200 195 206 206 206 196 183 185 187 170 166 127 148 147
105 114 112 116 118 126 132 134 127 129 116 116 121 130 141 151 159 164 164 166 185 196 187 186 188 173 178 185 184 188 177 176 176 185 169 139 138 142 150 149 151 158 160
136 123 116 122 130 131 132 134 136 135 128 116 114 117 125 132 149 157 148 141 152 167 170 138 141 157 162 159 160 165 164 167 167 167 171 168 153 150 143 155 162 161 176
165 166 158 147 140 130 122 119 121 122 124 121 110 99 103 118 124 120 114 112 120 139 147 131 129 124 121 119 126 140 143 147 151 159 154 144 144 151 148 150 163 158 165
Wind_Speed
83 86 88 88 92 65 54 55 50 35 31 30 25 25 23 23 20 19 16 13 13 11 13 16 17 15 14 15 23 32 31 39 49 50 45 35 30 30 30 27 28 31 35
85 87 87 85 77 49 48 47 45 38 32 30 25 24 22 23 21 19 17 13 13 13 12 16 18 16 16 16 15 19 22 37 41 39 40 39 34 26 25 22 24 28 29
85 85 84 81 63 46 46 49 43 35 33 30 26 25 23 22 21 20 16 12 14 14 14 15 18 18 20 19 19 20 18 18 27 34 35 36 30 15 17 18 22 26 27
84 84 82 81 72 57 54 48 40 35 35 30 27 26 24 23 21 19 16 11 11 11 13 18 19 22 24 24 23 22 22 18 19 26 31 33 26 23 20 20 23 30 29
86 84 82 79 70 52 50 43 39 37 35 32 29 28 24 23 22 20 17 11 11 10 10 14 19 22 24 26 31 32 27 28 27 23 27 31 26 20 23 33 40 37 42
86 83 80 75 61 45 43 37 36 36 32 29 27 27 25 26 21 15 12 7 8 7 10 8 10 19 19 27 30 29 37 32 32 30 30 38 36 37 43 43 42 44 45
84 80 75 71 45 43 36 37 38 35 31 31 30 29 29 26 17 13 9 7 7 11 12 9 6 5 17 14 30 26 30 30 31 30 28 36 41 40 41 39 41 43 45
82 77 72 67 60 34 30 33 38 34 36 35 32 29 28 26 13 11 7 6 4 7 6 6 8 7 6 5 8 15 24 29 33 31 32 37 43 43 42 43 42 39 38
81 75 66 56 49 33 23 30 32 33 34 37 33 28 25 25 17 11 8 6 6 10 12 14 8 4 2 3 3 8 17 22 25 24 26 30 34 35 35 36 40 37 45
79 70 59 50 50 42 31 26 33 29 29 32 28 25 24 24 23 19 16 14 9 10 15 20 23 13 5 6 2 4 9 16 18 21 25 28 33 37 43 45 40 42 46
73 65 53 45 39 37 34 30 29 27 26 26 23 22 22 27 27 28 24 19 15 16 19 24 27 22 13 14 11 11 15 9 16 21 26 31 34 38 41 43 42 36 40
68 58 47 39 32 29 27 27 27 26 28 30 25 22 22 22 22 25 22 19 16 15 19 21 21 18 15 16 18 12 10 13 18 24 27 31 32 34 37 38 38 39 41
66 53 44 34 27 21 18 25 26 21 25 26 27 27 24 22 20 18 12 9 9 9 11 11 14 17 17 18 15 16 16 18 19 22 25 29 30 29 30 32 34 33 34
61 49 45 36 28 18 14 11 17 20 18 20 20 19 15 14 18 19 12 10 5 9 12 14 17 18 19 19 20 22 19 21 19 19 23 24 26 27 29 29 29 29 30
55 48 44 42 34 25 20 8 7 6 8 8 11 10 11 7 7 4 6 10 14 11 13 14 17 19 18 21 21 20 20 21 21 21 21 22 23 25 26 26 28 28 28
50 42 39 38 36 30 29 23 30 25 20 16 10 5 5 12 13 10 13 14 15 13 10 14 17 20 20 20 19 19 21 21 20 19 19 19 20 22 23 25 26 28 29
49 45 39 34 29 24 21 20 18 22 29 22 19 16 19 21 21 18 16 16 15 12 16 17 17 19 19 19 20 20 20 21 21 21 21 21 21 24 26 27 28 30 32
47 44 40 37 33 28 22 20 16 13 13 16 26 24 24 23 22 21 19 19 19 21 20 17 18 19 20 21 22 22 22 23 23 23 24 25 25 26 28 30 32 34 36
47 44 38 34 32 30 29 28 25 22 20 18 21 27 31 33 32 30 27 23 21 22 23 23 23 23 23 23 24 24 24 24 26 27 28 28 28 28 31 32 34 36 38
43 43 42 39 36 33 30 27 27 28 28 27 27 26 26 27 27 28 28 27 27 26 26 25 25 25 25 25 24 25 26 27 28 29 30 31 31 31 34 35 36 38 41
39 39 38 37 36 35 33 33 31 30 29 30 31 31 31 29 28 29 29 30 29 28 28 28 28 28 27 26 27 28 28 29 30 31 32 33 34 35 37 38 40 41 42
37 36 35 35 34 34 33 32 31 31 31 31 31 32 32 31 30 30 30 31 31 30 30 29 30 30 30 29 28 29 31 33 34 35 34 35 37 38 38 38 41 42 45
37 36 36 35 34 33 32 32 31 31 31 31 31 31 32 31 31 31 31 31 31 31 32 31 31 31 32 32 32 32 32 35 36 37 36 36 38 39 39 43 42 46 48
37 36 35 34 33 33 32 32 32 32 32 32 32 32 32 32 31 32 32 32 33 33 33 32 32 32 33 33 34 35 36 36 37 38 38 38 39 39 42 44 46 48 51
39 37 36 35 33 33 32 33 32 32 32 32 31 32 32 32 33 33 32 32 32 32 33 33 33 35 36 35 36 36 38 39 40 40 40 41 41 43 44 47 48 50 53
40 39 37 36 35 34 33 33 33 32 32 32 32 31 31 32 32 32 31 31 32 33 34 33 33 35 36 37 37 38 40 41 41 42 41 41 43 45 47 49 51 53 54
Wind_Direction
298 293 287 281 273 274 269 273 275 255 241 232 235 241 236 247 249 260 264 259 224 225 237 250 237 256 223 213 238 250 250 257 258 254 259 268 262 262 268 270 277 283 289
299 295 287 284 277 270 266 269 268 250 238 238 238 241 240 248 255 256 263 254 224 223 225 246 251 234 223 221 216 224 237 256 256 262 259 265 268 268 272 277 288 295 298
298 294 286 281 282 275 271 271 261 243 235 235 239 246 249 253 257 263 249 238 219 219 211 246 242 229 236 225 214 187 189 241 257 268 270 271 273 258 276 284 293 300 306
300 293 287 279 276 279 276 273 250 234 231 238 243 251 254 261 260 264 257 239 238 222 206 203 248 229 237 228 224 203 194 209 254 256 276 276 267 272 270 272 284 300 304
301 296 288 282 278 281 275 265 247 230 230 242 245 249 256 266 266 266 261 235 253 253 226 212 194 244 236 234 236 238 234 247 241 243 261 266 265 270 271 285 291 298 300
303 297 292 284 280 279 272 255 240 234 226 237 238 243 255 268 268 256 256 231 254 255 253 251 224 197 235 245 239 241 241 238 241 249 260 257 263 271 283 286 291 294 295
304 299 294 289 281 278 264 244 235 224 228 231 236 243 255 264 260 253 254 272 275 286 288 293 280 208 169 254 264 267 273 267 261 254 259 270 274 279 284 288 289 292 294
312 305 302 293 288 276 255 230 227 229 226 230 234 238 249 262 251 253 263 289 314 318 312 310 307 303 289 234 254 276 280 281 278 274 276 282 284 286 288 294 295 298 302
320 313 309 303 297 279 245 222 225 221 225 230 234 233 241 259 259 231 255 281 315 317 318 317 343 39 91 138 248 271 286 291 301 297 293 295 297 298 296 298 299 297 298
329 322 315 303 285 280 252 224 230 221 220 224 227 238 249 255 264 247 252 272 282 296 305 307 304 309 118 135 202 261 277 287 297 298 301 305 307 306 305 302 299 295 298
337 331 314 298 290 283 259 235 220 217 210 210 215 239 255 267 269 256 258 260 265 280 291 296 302 303 297 289 285 280 287 290 304 307 309 309 312 312 314 315 313 307 305
345 335 321 295 297 284 258 242 227 214 207 226 224 245 264 277 282 266 260 261 268 274 289 301 312 324 318 310 306 305 301 303 305 304 306 310 315 318 320 323 325 323 323
355 345 336 321 305 311 278 241 228 223 220 223 233 244 257 272 281 277 273 264 284 297 313 330 344 345 342 334 326 318 312 307 308 309 306 311 317 328 333 333 335 339 343
358 350 350 344 346 319 334 292 241 244 239 235 247 256 253 261 263 268 282 285 334 333 320 325 342 343 341 330 326 324 327 321 320 317 316 324 329 332 337 338 339 345 348
0 356 357 1 4 11 18 340 14 325 314 271 257 258 238 226 285 308 314 314 295 299 342 345 336 329 330 325 325 325 330 331 331 332 330 330 332 337 342 345 346 352 350
357 351 355 4 10 18 32 39 35 34 43 44 44 54 72 66 54 33 1 342 310 327 329 343 328 335 328 336 336 337 341 345 346 352 353 352 352 349 351 358 1 353 348
3 359 358 1 1 5 13 31 47 43 46 43 45 43 42 42 36 34 25 15 4 360 356 347 340 341 345 356 358 3 0 9 12 9 6 3 359 352 350 350 349 347 344
2 1 1 2 6 8 6 13 12 9 20 16 22 22 26 31 30 20 18 22 13 4 8 5 2 2 3 4 9 5 9 8 4 2 359 352 350 349 347 345 343 341 339
7 4 359 358 1 4 10 14 11 5 5 2 5 9 18 30 32 27 21 14 11 9 6 9 17 15 13 12 9 9 9 359 357 354 352 351 348 346 343 341 342 340 340
3 9 15 17 16 7 2 2 5 7 10 6 3 356 355 8 8 7 7 10 11 8 5 7 9 13 11 6 2 359 358 355 353 349 348 347 346 346 343 341 339 336 335
1 2 5 9 13 16 16 14 11 6 4 5 4 5 7 6 4 3 2 2 3 3 3 6 7 9 9 8 359 354 352 351 350 347 346 346 343 341 342 340 339 336 335
358 0 2 4 7 10 11 10 8 6 5 5 4 2 1 1 1 360 359 358 357 360 0 2 357 355 354 351 350 349 347 345 342 341 342 341 340 339 338 337 337 337 336
353 356 356 355 358 359 359 357 356 355 353 351 351 351 350 351 351 351 351 351 352 352 356 356 353 353 357 357 354 347 345 342 341 342 340 338 338 339 339 336 335 333 333
352 355 357 359 1 0 358 353 348 347 347 347 348 350 350 349 350 349 347 345 346 348 349 351 350 349 348 348 347 345 344 341 340 340 339 337 335 336 335 334 334 334 333
345 349 350 351 352 356 357 352 348 347 345 344 343 344 344 343 343 344 346 347 349 348 348 349 348 347 347 346 346 343 342 340 339 337 337 337 335 334 333 333 332 332 332
338 340 341 342 345 347 348 345 342 342 340 340 341 342 342 342 343 344 346 347 347 347 348 348 349 348 346 344 343 342 340 338 337 335 336 336 336 335 334 332 332 331 330